{"data":{"norad_id":62074,"intl_designator":"2024-217T","name":"STARLINK-32619","alt_names":[],"object_type":"PAYLOAD","status":"ACTIVE","operator":null,"country":"US","launch_date":"2024-11-24","launch_site_code":"AFWTR","launch_vehicle":null,"mission":null,"orbit_class":"UNKNOWN","rcs_meters":null,"size_class":null,"mass_kg":null,"dimensions":null,"purposes":["comms"],"wikipedia_slug":null,"has_3d_model":false,"image_url":null,"decayed_at":null,"tle_current":{"epoch":"2026-09-21T16:51:59.101632Z","epoch_age_seconds":77269,"freshness":"FRESH","line1":"1 62074U 24217T   26264.70276738  .00030390  00000+0  90655-3 0  9997","line2":"2 62074  53.1591 359.7628 0001146  76.1957 283.9173 15.34413302103487","mean_motion":15.34413302,"eccentricity":0.0001146,"inclination_deg":53.1591,"raan_deg":359.7628,"arg_perigee_deg":76.1957,"mean_anomaly_deg":283.9173,"bstar":0.00090655,"rev_number":10348,"period_min":93.846944504656,"perigee_km":461.87974838476,"apogee_km":463.44765990615,"semimajor_km":6840.8007041455,"source":"CELESTRAK","updated_at":"2026-09-22T09:00:49.495288Z"}}}